{"data":{"norad_id":48575,"epoch":"2026-09-19T16:01:17.870880Z","epoch_age_seconds":109118,"freshness":"FRESH","line1":"1 48575U 21041Y   26262.66756795  .00033444  00000+0  10091-2 0  9996","line2":"2 48575  53.1588 265.1840 0004175  57.1615 302.9789 15.33999153295551","mean_motion":15.33999153,"eccentricity":0.0004175,"inclination_deg":53.1588,"raan_deg":265.184,"arg_perigee_deg":57.1615,"mean_anomaly_deg":302.9789,"bstar":0.0010091,"rev_number":29555,"period_min":93.872281297146,"perigee_km":461.03835307558,"apogee_km":466.75144971324,"semimajor_km":6842.0319013944,"source":"CELESTRAK","updated_at":"2026-09-20T09:00:39.135559Z"}}